Chillicothe, MO

8:56 PM CST on December 10, 2019 (GMT -0600)
Chillicothe

Weather History for KCDJ - August, 2019

Change the Weather History Date:

Thursday, August 22, 2019

  Actual Average (KIRK) Record (KIRK)
Temperature  
Mean Temperature 76 °F -  
Max Temperature 82 °F 85 °F 103 °F (1936)
Min Temperature 70 °F 62 °F 47 °F (1923)
Cooling Degree Days 11    
Growing Degree Days 26 (Base 50)    
Moisture  
Dew Point 67 °F    
Average Humidity 80    
Maximum Humidity 97    
Minimum Humidity 58    
Precipitation  
Precipitation 0.01 in - - ()
Sea Level Pressure  
Sea Level Pressure 29.99 in    
Wind  
Wind Speed 2 mph (NE)    
Max Wind Speed 8 mph    
Max Gust Speed -    
Averages and records for this station are not official NWS values.
T = Trace of Precipitation, MM = Missing Value Source: NWS Daily Summary

Daily Weather History Graph

Daily Weather History Graph

Search for Another Location

Airport or City:

Astronomy

Aug. 22, 2019 Rise Set
Actual Time 6:32 AM CDT 8:01 PM CDT
Civil Twilight 6:04 AM CDT 8:29 PM CDT
Nautical Twilight 5:30 AM CDT 9:03 PM CDT
Astronomical Twilight 4:54 AM CDT 9:39 PM CDT
Moon 11:52 PM CDT (8/22) 1:08 PM CDT (8/22)
Length of Visible Light 14h 25m
Length of Day
13h 28m
Waning Gibbous, 59% of the Moon is Illuminated
Aug 22
Waning Gibbous
Aug 23
Last Quarter
Aug 30
New
Sep 5
First Quarter
Sep 13
Full

Hourly Weather History & Observations

Time (CDT) Temp. Heat Index Dew Point Humidity Pressure Visibility Wind Dir Wind Speed Gust Speed Precip Events Conditions
12:52 AM 72.0 °F - 70.0 °F 93% 30.01 in - Calm Calm - N/A   Unknown
1:52 AM 71.1 °F - 70.0 °F 96% 29.99 in - Calm Calm - 0.01 in   Unknown
2:52 AM 71.1 °F - 69.1 °F 93% 29.98 in - ENE 3.5 mph - N/A   Unknown
3:52 AM 71.1 °F - 69.1 °F 93% 29.97 in - Calm Calm - N/A   Unknown
4:52 AM 70.0 °F - 69.1 °F 97% 29.96 in - Calm Calm - N/A   Unknown
5:52 AM 70.0 °F - 69.1 °F 97% 29.98 in - Calm Calm - N/A   Unknown
6:52 AM 70.0 °F - 69.1 °F 97% 29.99 in - Calm Calm - N/A   Unknown
7:52 AM 72.0 °F - 70.0 °F 93% 30.00 in - NE 5.8 mph - N/A   Unknown
8:52 AM 72.0 °F - 69.1 °F 91% 30.00 in - NE 5.8 mph - N/A   Unknown
9:52 AM 73.9 °F - 69.1 °F 85% 30.00 in - NE 5.8 mph - N/A   Unknown
10:52 AM 75.0 °F - 69.1 °F 82% 30.01 in - Variable 4.6 mph - N/A   Unknown
11:52 AM 77.0 °F - 68.0 °F 74% 30.01 in - North 5.8 mph - N/A   Unknown
12:52 PM 79.0 °F - 68.0 °F 69% 29.99 in - NNE 8.1 mph - N/A   Unknown
1:52 PM 80.1 °F 82.7 °F 68.0 °F 67% 29.98 in - East 4.6 mph - N/A   Unknown
2:52 PM 81.0 °F 83.0 °F 66.0 °F 60% 29.97 in - Calm Calm - N/A   Unknown
3:52 PM 82.0 °F 84.5 °F 66.9 °F 60% 29.96 in - ENE 5.8 mph - N/A   Unknown
4:52 PM 80.1 °F 82.3 °F 66.9 °F 64% 29.96 in - NE 5.8 mph - N/A   Unknown
5:52 PM 81.0 °F 82.7 °F 64.9 °F 58% 29.95 in - NE 5.8 mph - N/A   Unknown
6:52 PM 78.1 °F - 64.0 °F 62% 29.96 in - NE 3.5 mph - N/A   Unknown
7:52 PM 75.0 °F - 64.9 °F 71% 29.96 in - NNE 4.6 mph - N/A   Unknown
8:52 PM 71.1 °F - 64.9 °F 81% 29.99 in - Calm Calm - N/A   Unknown
9:52 PM 71.1 °F - 64.0 °F 78% 29.99 in - NE 6.9 mph - N/A   Unknown
10:52 PM 71.1 °F - 63.0 °F 75% 30.01 in - East 3.5 mph - N/A   Unknown
11:52 PM 70.0 °F - 62.1 °F 76% 30.02 in - Calm Calm - N/A   Unknown